Location: ?????????
(54.7630°N, 39.4991°E)
Time: 09:20:17
(UTC+00:00)

Cosmos 2233 Rocket - Pass Details

Date: 14 April 2026
Orbit: 951 x 991 km, 82.9° (Epoch: 10 May)

Event Time Altitude Azimuth Distance (km) Brightness Sun altitude
Exits shadow 21:53:31 58° 207° (SSW) 1,146 4.0 -25.2°
Maximum altitude 21:54:52 81° 282° (WNW) 1,005 3.9 -25.2°
Drops below altitude 10° 22:01:11 10° 10° (N) 2,743 7.4 -25.0°
Sets 22:03:43 0° 12° (NNE) 3,689 8.4 -25.0°
